NUSANTARA TIGA (SATRIA)

Last updated on Fri Dec 19 2025 00:02:54 GMT+0000 (Coordinated Universal Time)

1 57045U 23086A 25352.18948767 -.00000210 00000+0 00000+0 0 9999 2 57045 0.0346 335.0665 0005190 316.7844 9.4174 1.00265872 7948
UTC large
Height (km)
Speed (km/s)
/
Latitude / Longitude
Inclination (degrees)
Orbital Period (minutes)
Azimuth
Elevation
Range (km)
Doppler Factor

Next 0 passes for location: London (51.5072 / 0.1276)

Sorry there are no passes over London.